Regional Weather Roundup
Issued by NWS

Home | Current Version | Previous Version | Graphics & Text | Print | Product List | Glossary On
Versions: 1 2 3 4 5 6 7 8 9 10 11 12 13 14 15 16 17 18 19 20 21 22 23 24 25 26 27 28 29 30 31 32 33 34 35 36 37 38 39 40 41 42 43 44 45 46 47 48 49 50
000
ASUS43 KFSD 212102
RWRSD

WEATHER ROUNDUP FOR SOUTH DAKOTA
NATIONAL WEATHER SERVICE SIOUX FALLS SD
400 PM CDT THU SEP 21 2017

NOTE: "FAIR" INDICATES FEW OR NO CLOUDS BELOW 12,000 FEET WITH NO
SIGNIFICANT WEATHER AND/OR OBSTRUCTIONS TO VISIBILITY.


SDZ001>005-009-010-012>017-212200-
NORTHWEST AND NORTH CENTRAL SOUTH DAKOTA

CITY           SKY/WX    TMP DP  RH WIND       PRES   REMARKS
BUFFALO          N/A     72  39  30 N13G20    29.67R
FAITH            N/A     83  41  22 W6        29.64R
MOBRIDGE       SUNNY     87  59  38 S12       29.59S
$$

SDZ012>016-024>037-041>051-057-063-072>074-212200-
SOUTHWEST AND SOUTH CENTRAL SOUTH DAKOTA

CITY           SKY/WX    TMP DP  RH WIND       PRES   REMARKS
RAPID CTY ARPT NOT AVBL
PIERRE         SUNNY     88  54  31 S18       29.58F
CUSTER         SUNNY     77  29  17 S10G23    29.77F
ELLSWORTH AFB  SUNNY     76  38  25 N15       29.69R
PHILIP         SUNNY     92  44  19 NW7       29.59S
PINE RIDGE     SUNNY     92  31  11 SW7       29.64F
SPEARFISH      FAIR      68  39  34 NW10      29.75S
WINNER         FAIR      88  57  34 S15       29.63S
$$

SDZ004>011-016>023-039-040-212200-
NORTHEAST SOUTH DAKOTA

CITY           SKY/WX    TMP DP  RH WIND       PRES   REMARKS
ABERDEEN       MOSUNNY   86  65  49 S20G25    29.63F
WATERTOWN      PTSUNNY   81  71  71 S21G26    29.68F
BROOKINGS      PTSUNNY   84  71  65 S22G29    29.70F
SISSETON         N/A     83  65  54 SE21      29.67F
$$

SDZ017-020-022-023-036>040-048>070-212200-
SOUTHEAST SOUTH DAKOTA

CITY           SKY/WX    TMP DP  RH WIND       PRES   REMARKS
SIOUX FALLS    MOSUNNY   86  72  62 S17G28    29.69F
HURON          MOSUNNY   83  67  58 S18G24    29.64F
CHAMBERLAIN    SUNNY     88  63  42 SE16G22   29.63S
MITCHELL       SUNNY     86  68  54 S21G29    29.64F
YANKTON        SUNNY     88  69  53 SE17G25   29.67F
$$

ABBREVIATIONS USED IN REMARKS
   TC - TEMPERATURE IN CELSIUS
  WCI - WIND CHILL INDEX
   HX - HEAT INDEX
  VSB - VISIBILITY





USA.gov is the U.S. government's official web portal to all federal, state and local government web resources and services.